TimePST,TemperatureF,Dew PointF,Humidity,Sea Level PressureIn,VisibilityMPH,Wind Direction,Wind SpeedMPH,Gust SpeedMPH,PrecipitationIn,Events,Conditions,WindDirDegrees,DateUTC
12:53 AM,59.0,53.1,81,30.06,10.0,Calm,Calm,-,N/A,,Scattered Clouds,0,2012-11-17 08:53:00
1:53 AM,54.0,51.1,90,30.06,10.0,ESE,5.8,-,N/A,,Clear,110,2012-11-17 09:53:00
2:53 AM,53.1,50.0,89,30.06,9.0,ESE,5.8,-,N/A,,Clear,120,2012-11-17 10:53:00
3:53 AM,55.0,51.1,86,30.05,9.0,SE,4.6,-,N/A,,Scattered Clouds,130,2012-11-17 11:53:00
4:53 AM,52.0,50.0,93,30.06,10.0,East,5.8,-,N/A,,Partly Cloudy,100,2012-11-17 12:53:00
5:53 AM,54.0,50.0,86,30.07,10.0,SE,6.9,-,N/A,,Mostly Cloudy,130,2012-11-17 13:53:00
6:53 AM,55.0,51.1,86,30.08,6.0,SE,5.8,-,N/A,,Mostly Cloudy,140,2012-11-17 14:53:00
7:53 AM,61.0,52.0,72,30.10,9.0,SSE,5.8,-,N/A,,Overcast,150,2012-11-17 15:53:00
8:53 AM,66.0,53.1,63,30.11,10.0,SSE,4.6,-,N/A,,Scattered Clouds,150,2012-11-17 16:53:00
9:53 AM,68.0,55.0,63,30.11,10.0,West,3.5,-,N/A,,Overcast,270,2012-11-17 17:53:00
10:53 AM,69.1,55.9,63,30.10,10.0,Calm,Calm,-,N/A,,Partly Cloudy,0,2012-11-17 18:53:00
11:53 AM,71.1,54.0,55,30.08,10.0,West,6.9,-,N/A,,Clear,280,2012-11-17 19:53:00
12:53 PM,71.1,55.0,57,30.06,10.0,West,10.4,-,N/A,,Clear,260,2012-11-17 20:53:00
1:53 PM,70.0,55.9,61,30.06,10.0,West,11.5,-,N/A,,Clear,260,2012-11-17 21:53:00
2:53 PM,69.1,55.9,63,30.06,10.0,West,8.1,-,N/A,,Clear,270,2012-11-17 22:53:00
3:53 PM,68.0,57.9,70,30.06,10.0,West,8.1,-,N/A,,Clear,270,2012-11-17 23:53:00
4:53 PM,64.0,57.0,78,30.06,10.0,SSW,61.0,70.2,N/A,,Squalls,210,2012-11-18 00:53:00
5:01 PM,64.4,57.2,77,30.06,10.0,West,4.6,70.2,N/A,,Squalls,270,2012-11-18 01:01:00
5:53 PM,62.1,57.0,84,30.07,10.0,WSW,4.6,-,N/A,,Mostly Cloudy,250,2012-11-18 01:53:00
6:53 PM,61.0,57.0,87,30.07,10.0,Calm,Calm,-,N/A,,Partly Cloudy,0,2012-11-18 02:53:00
7:53 PM,61.0,57.9,90,30.08,10.0,NE,3.5,-,N/A,,Scattered Clouds,50,2012-11-18 03:53:00
8:53 PM,61.0,57.0,87,30.09,10.0,Calm,Calm,-,N/A,,Overcast,0,2012-11-18 04:53:00
9:53 PM,61.0,55.9,83,30.10,10.0,Calm,Calm,-,N/A,,Overcast,0,2012-11-18 05:53:00
10:19 PM,60.8,55.4,82,30.11,10.0,Calm,Calm,-,N/A,,Mostly Cloudy,0,2012-11-18 06:19:00
10:53 PM,57.9,55.0,90,30.10,10.0,Calm,Calm,-,N/A,,Mostly Cloudy,0,2012-11-18 06:53:00
11:42 PM,59.0,55.4,88,30.10,10.0,Calm,Calm,-,N/A,,Mostly Cloudy,0,2012-11-18 07:42:00
11:53 PM,57.9,55.0,90,30.09,10.0,Calm,Calm,-,N/A,,Scattered Clouds,0,2012-11-18 07:53:00